Probability
0 0 0 0 0 0 0 0 0 0 0 0 0 0 0 0 0 0 0 0 0 0 0 0 0 0 0 0 0 0 0 1 2 3 3 3 2 1 2 3 3 3 3 3
0 0 0 0 0 0 0 0 0 0 0 0 0 0 0 0 0 0 0 0 0 0 0 0 0 0 0 0 0 0 0 1 2 3 3 3 3 1 1 2 3 3 3 3
0 0 0 0 0 0 0 0 0 0 0 0 0 0 0 0 0 0 0 0 0 0 0 0 0 0 0 0 0 0 0 0 1 3 3 3 3 2 1 1 2 3 3 3
0 0 0 0 0 0 0 0 0 0 0 0 0 0 0 0 0 0 0 0 0 0 0 0 0 0 0 0 0 0 0 0 1 2 3 3 3 3 2 1 1 2 3 3
0 0 0 0 0 0 0 0 0 0 0 0 0 0 0 0 0 0 0 0 0 0 0 0 0 0 0 0 0 0 0 0 0 1 2 3 3 3 3 2 1 1 2 3
0 0 0 0 0 0 0 0 0 0 0 0 0 0 0 0 0 0 0 0 0 0 0 0 0 0 0 0 0 0 0 0 0 0 1 3 3 3 3 3 2 1 1 2
0 0 0 0 0 0 0 0 0 0 0 0 0 0 0 0 0 0 0 0 0 0 0 0 0 0 0 0 0 0 0 0 0 0 1 2 3 3 3 3 2 1 0 1
0 0 0 0 0 0 0 0 0 0 0 0 0 0 0 0 0 0 0 0 0 0 0 0 0 0 0 0 0 0 0 0 0 0 0 1 1 2 3 3 2 1 0 0
0 0 0 0 0 0 0 0 0 0 0 0 0 0 0 0 0 0 0 0 0 0 0 0 0 0 0 0 0 0 0 0 0 0 0 0 0 1 2 3 2 1 0 0
0 0 0 0 0 0 0 0 0 0 0 0 0 0 0 0 0 0 0 0 0 0 0 0 0 0 0 0 0 0 0 0 0 0 0 0 0 0 1 1 1 1 0 0
0 0 0 0 0 0 0 0 0 0 0 0 0 0 0 0 0 0 0 0 0 0 0 0 0 0 0 0 0 0 0 0 0 0 0 0 0 0 0 0 0 0 0 0
0 0 0 0 0 0 0 0 0 0 0 0 0 0 0 0 0 0 0 0 0 0 0 0 0 0 0 0 0 0 0 0 0 0 0 0 0 0 0 0 0 0 0 0
0 0 0 0 0 0 0 0 0 0 0 0 0 0 0 0 0 0 0 0 0 0 0 0 0 0 0 0 0 0 0 0 0 0 0 0 0 0 0 0 0 0 0 0
0 0 0 0 0 0 0 0 0 0 0 0 0 0 0 0 0 0 0 0 0 0 0 0 0 0 0 0 0 0 0 0 0 0 0 0 0 0 0 0 0 0 0 0
0 0 0 0 0 0 0 0 0 0 0 0 0 0 0 0 0 0 0 0 0 0 0 0 0 0 0 0 0 0 0 0 0 0 0 0 0 0 0 0 0 0 0 0
0 0 0 0 0 0 0 0 0 0 0 0 0 0 0 0 0 0 0 0 0 0 0 0 0 0 0 0 0 0 0 0 0 0 0 0 0 0 0 0 0 0 0 0
0 0 0 0 0 0 0 0 0 0 0 0 0 0 0 0 0 0 0 0 0 0 0 0 0 0 0 0 0 0 0 0 0 0 0 0 0 0 0 0 0 0 0 0
0 0 0 0 0 0 0 0 0 0 0 0 0 0 0 0 0 0 0 0 0 0 0 0 0 0 0 0 0 0 0 0 0 0 0 0 0 0 0 0 0 0 0 0
0 0 0 0 0 0 0 0 0 0 0 0 0 0 0 0 0 0 0 0 0 0 0 0 0 0 0 0 0 0 0 0 0 0 0 0 0 0 0 0 0 0 0 0
0 0 0 0 0 0 0 0 0 0 0 0 0 0 0 0 0 0 0 0 0 0 0 0 0 0 0 0 0 0 0 0 0 0 0 0 0 0 0 0 0 0 0 0
0 0 0 0 0 0 0 0 0 0 0 0 0 0 0 0 0 0 0 0 0 0 0 0 0 0 0 0 0 0 0 0 0 0 0 0 0 0 0 0 0 0 0 0
0 0 0 0 0 0 0 0 0 0 0 0 0 0 0 0 0 0 0 0 0 0 0 0 0 0 0 0 0 0 0 0 0 0 0 0 0 0 0 0 0 0 0 0
0 0 0 0 0 0 0 0 0 0 0 0 0 0 0 0 0 0 0 0 0 0 0 0 0 0 0 0 0 0 0 0 0 0 0 0 0 0 0 0 0 0 0 0
0 0 0 0 0 0 0 0 0 0 0 0 0 0 0 0 0 0 0 0 0 0 0 0 0 0 0 0 0 0 0 0 0 0 0 0 0 0 0 0 0 0 0 0
0 0 0 0 0 0 0 0 0 0 0 0 0 0 0 0 0 0 0 0 0 0 0 0 0 0 0 0 0 0 0 0 0 0 0 0 0 0 0 0 0 0 0 0
0 0 0 0 0 0 0 0 0 0 0 0 0 0 0 0 0 0 0 0 0 0 0 0 0 0 0 0 0 0 0 0 0 0 0 0 0 0 0 0 0 0 0 0
Wind_Speed
4 3 5 6 7 6 4 4 6 4 0 2 7 10 8 6 6 6 5 5 4 4 2 2 2 2 2 2 2 2 2 1 1 2 2 2 3 2 2 2 3 3 2 2
3 6 6 3 3 5 5 6 7 4 0 2 6 11 9 8 8 7 6 5 4 3 2 2 2 2 2 2 2 3 3 2 2 2 2 2 2 2 2 2 2 3 3 3
6 2 3 5 4 5 7 7 5 4 3 4 5 9 8 6 7 6 5 4 3 3 3 2 2 2 2 2 2 2 2 2 2 1 1 1 1 1 1 2 2 3 3 3
5 4 3 4 5 6 6 3 3 4 4 4 3 7 6 5 5 5 3 2 2 1 2 2 1 1 1 1 1 1 1 1 1 2 1 2 2 3 3 2 2 2 3 3
3 2 3 5 5 4 2 0 2 3 3 5 4 5 6 3 4 4 3 3 2 1 1 1 1 1 1 1 1 0 1 1 1 1 1 2 1 2 2 2 2 3 3 3
4 2 1 2 1 1 1 1 2 2 2 6 6 5 6 3 3 1 2 2 2 2 2 2 2 1 1 1 1 1 1 0 0 1 1 1 1 1 1 2 2 2 2 2
4 4 2 1 2 2 3 2 1 2 3 7 3 5 7 2 1 2 2 2 2 2 2 2 1 1 1 1 1 1 1 0 1 1 1 1 2 2 2 2 2 2 2 2
4 4 6 3 3 3 5 4 4 4 4 3 2 7 5 1 3 3 2 3 3 2 2 1 1 1 1 1 1 0 0 1 1 1 1 1 1 1 1 1 1 2 2 2
4 3 2 2 1 2 4 4 1 0 1 3 5 5 2 1 1 2 2 2 2 1 2 1 1 1 1 1 1 0 1 1 1 1 1 1 1 1 2 2 2 2 2 2
2 1 2 2 1 3 2 1 2 3 3 5 5 6 4 4 2 1 1 1 1 1 1 1 1 1 1 1 1 1 1 1 1 1 1 1 1 1 2 2 2 2 2 2
1 1 2 3 6 6 4 3 3 3 3 3 4 4 0 3 3 3 2 1 1 1 0 0 1 1 1 1 1 1 1 1 1 1 1 1 2 2 2 2 2 2 2 2
0 1 2 4 2 1 3 4 5 4 5 4 4 5 2 3 3 2 1 1 0 1 0 1 1 1 1 1 1 1 1 1 2 2 1 2 2 2 2 3 3 2 2 3
1 2 1 2 1 1 3 4 4 3 2 4 5 6 1 2 2 1 1 0 0 1 1 1 1 1 1 2 2 2 1 2 2 2 2 2 2 2 2 3 3 3 3 3
1 2 4 5 1 2 4 5 6 5 5 6 9 7 4 3 2 1 1 1 0 1 1 1 2 2 2 2 2 2 2 2 2 2 2 2 3 3 3 3 3 3 3 3
1 2 3 4 4 3 5 7 9 10 10 8 8 8 7 4 3 2 1 1 1 1 2 2 2 2 2 2 2 2 3 2 2 2 2 3 3 3 3 3 4 4 3 3
1 2 1 4 4 5 7 9 10 11 10 11 11 11 6 4 2 2 1 1 1 2 2 3 3 3 3 4 4 3 3 3 2 2 2 3 3 3 3 4 4 4 4 3
3 3 2 3 2 3 9 10 11 8 8 8 12 10 4 3 3 2 1 1 2 2 2 2 2 3 3 3 3 4 4 3 2 2 2 3 3 3 4 4 3 4 4 4
4 3 2 1 0 8 7 1 6 8 8 8 6 5 4 4 3 2 1 1 2 2 2 2 2 3 3 3 3 3 3 3 2 2 2 3 3 4 4 4 4 4 4 3
4 5 3 3 5 8 5 2 3 5 6 4 6 5 4 3 3 2 1 1 1 2 1 1 1 2 2 3 3 3 3 3 3 3 3 3 3 3 4 4 4 4 3 3
2 3 3 4 5 8 5 0 0 0 5 1 2 2 2 2 2 4 3 2 2 2 2 2 2 2 2 3 3 3 3 3 3 4 3 3 3 3 3 4 4 4 3 3
4 4 6 7 7 8 2 0 2 3 5 2 0 0 1 1 3 3 4 4 3 3 3 2 2 2 3 3 3 3 3 4 4 4 4 3 3 3 3 3 3 3 3 3
8 7 7 5 7 9 1 3 4 3 1 2 2 1 1 2 3 3 3 3 3 4 3 3 3 3 3 3 3 3 4 4 4 4 4 4 3 3 3 3 3 3 3 2
7 7 5 8 8 2 4 3 2 0 1 1 2 2 1 2 3 3 3 3 3 4 4 4 3 3 4 4 3 4 5 5 4 3 4 4 4 3 3 2 2 2 2 2
5 2 3 5 5 2 2 1 1 1 0 2 2 2 1 2 3 3 3 4 4 4 4 4 3 4 4 4 4 4 4 4 3 3 3 3 3 3 3 2 2 2 2 2
5 4 4 6 5 2 2 2 1 1 1 1 2 2 2 2 3 3 3 4 4 4 4 4 3 4 4 5 5 4 4 3 3 3 3 3 2 2 2 2 2 3 3 3
5 6 7 7 4 4 3 1 1 0 1 1 1 2 2 1 3 3 3 4 4 4 4 4 4 4 5 4 5 4 4 3 2 2 3 2 2 2 2 2 3 4 4 5
Wind_Direction
188 214 214 212 219 243 275 274 273 276 293 251 251 261 264 250 246 248 242 231 225 215 205 182 169 139 135 146 152 161 172 189 185 190 197 203 208 198 191 185 182 184 187 195
191 232 236 237 227 228 243 260 267 279 129 261 272 270 261 243 240 232 235 234 221 218 205 176 159 144 153 161 167 169 174 188 194 205 211 212 193 196 196 189 188 188 192 198
221 230 211 223 224 231 241 244 256 273 296 251 279 280 247 238 231 229 224 223 214 206 197 175 166 157 163 176 181 177 174 179 189 191 183 186 163 170 181 201 201 194 191 198
241 240 235 223 227 227 241 236 252 267 280 267 231 285 265 229 227 218 216 210 219 199 175 164 152 150 185 191 162 155 157 160 170 171 172 179 192 202 209 202 198 187 186 197
230 204 219 230 236 231 240 225 255 265 266 280 243 255 271 227 236 222 196 186 188 158 121 109 100 127 159 145 142 154 124 150 168 175 184 190 225 232 211 195 194 195 196 200
253 276 262 249 279 229 146 196 251 252 251 260 231 227 269 224 228 204 156 136 125 103 82 67 64 53 63 92 114 115 101 40 246 218 214 207 218 244 206 206 198 191 191 198
227 214 194 142 175 192 193 161 201 235 224 243 207 226 250 217 64 79 120 117 103 100 96 76 55 38 42 60 97 132 149 239 250 236 239 232 229 230 221 220 207 198 201 209
207 221 183 187 199 187 199 196 193 215 236 267 214 234 243 125 89 81 86 113 106 102 96 83 71 60 46 33 52 69 166 261 261 254 264 262 250 248 257 252 243 223 215 211
219 214 139 166 223 206 189 214 244 232 284 278 245 237 257 188 112 110 109 112 116 107 96 85 64 62 50 21 356 297 283 303 294 280 297 299 271 266 275 274 258 243 232 221
300 232 159 137 209 254 256 188 160 183 208 247 252 240 226 183 186 157 127 104 103 91 74 63 64 40 37 0 333 337 298 296 321 315 288 301 300 283 271 268 260 256 249 234
310 177 176 180 204 200 184 198 202 199 223 221 259 254 118 152 156 170 183 171 136 129 111 3 21 20 25 6 338 334 338 343 335 324 320 312 308 310 307 283 271 263 255 239
234 206 218 212 191 262 223 207 185 189 228 229 256 264 46 86 108 133 152 150 90 99 49 13 9 7 1 337 325 321 337 334 325 322 319 318 314 315 310 306 300 284 262 244
163 163 188 251 220 233 241 230 219 220 212 217 229 257 95 75 66 79 93 48 6 349 350 354 354 334 322 318 323 335 335 323 325 334 332 329 321 310 299 297 300 296 277 257
247 206 212 223 245 187 226 221 209 203 217 233 235 252 262 280 312 338 358 320 308 291 325 335 322 312 319 322 328 329 325 326 330 333 327 319 315 315 308 307 303 294 285 264
119 227 250 287 305 276 249 228 213 220 226 229 246 248 257 268 259 252 252 270 308 310 328 323 314 321 328 325 318 317 315 318 320 317 313 306 315 324 322 320 318 307 292 279
176 220 267 278 286 283 270 247 229 234 240 246 262 268 272 281 280 271 262 264 284 304 318 326 335 343 337 327 318 317 313 313 311 305 303 316 325 325 320 317 320 313 302 293
183 167 192 255 313 335 266 227 214 221 224 223 240 252 272 280 278 263 258 266 288 306 319 323 327 326 320 317 320 314 309 313 314 311 321 328 331 325 323 326 322 311 306 305
180 179 205 230 119 240 244 211 202 218 232 229 248 270 274 277 296 293 235 226 293 307 310 320 328 325 325 328 332 331 327 320 319 324 330 333 331 323 326 325 318 311 307 300
199 186 199 196 234 266 273 249 195 216 253 231 244 271 302 349 348 298 343 11 310 305 321 325 325 326 332 334 339 340 333 327 326 325 324 324 321 320 322 317 314 316 315 314
210 197 202 214 233 245 247 227 31 123 267 260 233 277 324 26 295 279 345 354 344 352 4 360 357 351 339 341 347 335 322 319 315 320 323 325 319 313 311 310 313 316 313 308
175 197 214 226 240 255 258 171 98 196 256 359 42 309 315 236 252 300 339 353 357 359 2 5 358 345 336 339 336 320 320 317 322 335 334 327 320 311 306 311 316 317 316 318
185 188 201 203 229 247 155 130 182 226 0 21 5 344 288 278 297 325 342 347 353 352 354 356 348 340 342 347 339 324 320 321 333 337 332 323 318 313 310 317 319 319 313 310
208 199 197 202 220 220 158 179 199 37 335 340 334 333 317 296 305 323 325 332 342 344 343 346 344 338 342 348 348 323 319 327 331 333 326 320 321 321 322 320 317 319 314 303
230 220 224 250 253 228 208 245 29 48 2 350 348 341 340 310 311 316 318 327 333 337 338 339 338 331 330 339 337 320 318 325 322 317 317 318 321 324 328 323 314 308 305 305
213 189 221 250 268 288 246 242 265 319 25 16 358 343 327 317 311 314 312 320 325 328 332 330 320 310 315 328 328 323 321 323 317 310 310 316 318 318 321 321 311 304 294 290
195 191 198 228 218 217 244 239 175 173 273 266 304 319 340 336 307 317 315 323 327 324 328 325 321 318 317 320 317 317 317 313 305 303 310 310 311 313 315 319 325 320 314 313